Flag for Norway Weather past 2 weeks in Namsos, Norway

Now
54 °F

Cool.


Feels Like: 51 °F
Forecast: 46 / 67 °F
Wind: 12 mph from North

Location: Buholmrasa Fyr

Current Time: Aug 22, 2014 at 4:53:14 AM

Latest Report: Aug 22, 2014 at 4:00 AM


Visibility: N/A

Pressure: 29.66 "Hg

Humidity: 92%

Dew point: 52 °F

Location of NamsosLocation

Historic Weather in Namsos — Graph

°F

Namsos temperature yesterday

Maximum temperature yesterday: 59 °F (at 3:00 PM)
Minimum temperature yesterday: 54 °F (at 11:00 PM)
Average temperature yesterday: 56 °F

Past Weeks' High & Low Weather Summary

 TemperatureHumidityPressure
High78 °F (Aug 9, 4:00 PM)94% (Aug 8, 6:00 AM)29.96 "Hg (Aug 8, 6:00 AM)
Low51 °F (Aug 17, 12:00 AM)37% (Aug 9, 7:00 PM)29.15 "Hg (Aug 18, 10:00 PM)
Average59 °F76%29.57 "Hg
* Reported Aug 7 3:00 AM — Aug 22 3:00 AM, Namsos, Weather by CustomWeather, © 2014

Note: Actual official high and low records may vary slightly from our data, if they occured in-between our weather recording intervals... More about our weather records

Advertising

Namsos weather history for previous 24 hours

 ConditionsComfort  
Time TempWeatherWind HumidityBarometerVisibility
3:00 AM
Aug 22
55 °FCool.10 mph90%29.66 "HgN/A
2:00 AM53 °FCool.1 mph85%29.67 "HgN/A
1:00 AM54 °FCool.2 mph85%29.66 "HgN/A
12:00 AM54 °FCool.6 mph88%29.65 "HgN/A
11:00 PM
Aug 21
54 °FCool.6 mph90%29.64 "HgN/A
10:00 PM54 °FCool.7 mph89%29.63 "HgN/A
9:00 PM56 °FCool.7 mph88%29.63 "HgN/A
8:00 PM56 °FCool.5 mph80%29.63 "HgN/A
7:00 PM58 °FCool.6 mph79%29.63 "HgN/A
6:00 PM57 °FCool.7 mph83%29.62 "HgN/A
5:00 PM58 °FCool.5 mph80%29.62 "HgN/A
4:00 PM56 °FCool.5 mph81%29.62 "HgN/A
3:00 PM59 °FCool.1 mph78%29.61 "HgN/A
2:00 PM56 °FCool.2 mph86%29.61 "HgN/A
1:00 PM57 °FCool.2 mph83%29.60 "HgN/A
12:00 PM57 °FCool.5 mph84%29.58 "HgN/A
11:00 AM56 °FCool.3 mph86%29.57 "HgN/A
10:00 AM56 °FCool.5 mph87%29.56 "HgN/A
9:00 AM56 °FCool.7 mph90%29.54 "HgN/A
8:00 AM56 °FCool.8 mph89%29.50 "HgN/A
7:00 AM56 °FCool.7 mph92%29.50 "HgN/A
6:00 AM54 °FCool.6 mph92%29.50 "HgN/A
5:00 AM56 °FCool.7 mph90%29.50 "HgN/A
4:00 AM56 °FCool.8 mph91%29.50 "HgN/A
Weather by CustomWeather, © 2014

See weather overviewHow to use our weather pages